Location: Mount Cross
(36.6390°N, 79.4878°W)
Time: 13:27:26
(UTC+00:00)

Vanguard 1 - Visible Passes

Search period start: 30 March 2023 00:00
Search period end: 09 April 2023 00:00
Orbit: 648 x 3832 km, 34.3° (Epoch: 30 March)

Date Brightness Start Highest point End Pass type
(mag) Time Alt. Az. Time Alt. Az. Time Alt. Az.
30 Mar 12.6 01:45:35 10° W 02:00:30 33° SW 02:07:19 19° S visible
30 Mar 12.8 23:37:32 10° WNW 23:59:16 63° SSW 00:12:25 10° SE visible
31 Mar 12.8 02:07:53 10° W 02:20:22 24° SW 02:27:01 15° SSW visible
31 Mar 12.9 23:59:00 10° WNW 00:19:47 54° SW 00:32:31 10° SE visible
01 Apr 13.1 02:31:05 10° W 02:40:06 17° SW 02:46:44 10° SSW visible
02 Apr 13.0 00:20:36 10° WNW 00:40:06 45° SW 00:52:21 10° SSE visible
02 Apr 13.4 02:57:48 10° WSW 02:59:46 10° WSW 03:01:37 10° SW visible
03 Apr 13.0 00:42:25 10° WNW 01:00:13 36° SW 01:11:51 10° SSE visible
04 Apr 13.2 01:04:38 10° W 01:20:09 28° SW 01:30:54 10° S visible
05 Apr 13.3 01:27:36 10° W 01:39:58 20° SW 01:49:13 10° SSW visible
06 Apr 13.6 01:52:18 10° W 01:59:42 13° WSW 02:05:55 10° SSW visible
06 Apr 13.4 23:39:25 10° WNW 23:59:11 39° SW 00:13:18 10° SSE visible
08 Apr 13.5 00:01:32 10° W 00:19:15 31° SW 00:32:23 10° S visible
